Flag for Spain Weather past 2 weeks in Arrecife, Canary Islands, Spain

Now
68 °F

Passing clouds.


Feels Like: 68 °F
Forecast: 65 / 76 °F
Wind: 6 mph from North

Location: Lanzarote / Aeropuerto

Current Time: May 29, 2015 at 12:34:05 AM

Latest Report: May 29, 2015 at 12:00 AM


Visibility: N/A

Pressure: 30.07 "Hg

Humidity: 73%

Dew point: 59 °F

Location of ArrecifeLocation

Historic Weather in Arrecife — Graph

°F

Arrecife temperature yesterday

Maximum temperature yesterday: 73 °F (at 1:00 PM)
Minimum temperature yesterday: 66 °F (at 12:00 AM)
Average temperature yesterday: 70 °F

Past Weeks' High & Low Weather Summary

 TemperatureHumidityPressure
High91 °F (May 14, 5:30 PM)83% (May 16, 6:00 AM)30.15 "Hg (May 16, 6:00 AM)
Low64 °F (May 18, 6:00 AM)19% (May 14, 6:00 AM)29.92 "Hg (May 14, 6:00 PM)
Average72 °F62%30.05 "Hg
* Reported May 13 10:00 PM — May 28 10:30 PM, Arrecife, Weather by CustomWeather, © 2015

Note: Actual official high and low records may vary slightly from our data, if they occured in-between our weather recording intervals... More about our weather records

Advertising

Arrecife weather history for previous 24 hours

 ConditionsComfort  
Time TempWeatherWind HumidityBarometerVisibility
10:30 PM
Thu, May 28
68 °FPassing clouds.2 mph69%30.04 "HgN/A
10:00 PM68 °FPassing clouds.10 mph73%30.04 "HgN/A
9:30 PM68 °FPassing clouds.18 mph73%30.04 "HgN/A
9:00 PM70 °FPassing clouds.14 mph69%30.04 "HgN/A
8:30 PM70 °FPassing clouds.14 mph69%30.04 "HgN/A
8:00 PM70 °FPassing clouds.9 mph69%30.01 "HgN/A
7:30 PM70 °FPassing clouds.12 mph69%30.01 "HgN/A
7:00 PM72 °FPassing clouds.12 mph65%30.01 "HgN/A
6:30 PM72 °FScattered clouds.13 mph65%30.01 "HgN/A
6:00 PM73 °FScattered clouds.13 mph61%30.01 "HgN/A
5:30 PM73 °FScattered clouds.12 mph61%30.01 "HgN/A
5:00 PM73 °FScattered clouds.14 mph57%30.01 "HgN/A
4:30 PM73 °FBroken clouds.12 mph61%30.01 "HgN/A
4:00 PM73 °FBroken clouds.14 mph57%30.01 "HgN/A
3:30 PM72 °FBroken clouds.14 mph61%30.01 "HgN/A
3:00 PM73 °FMore clouds than sun.15 mph61%30.01 "HgN/A
2:30 PM73 °FMore clouds than sun.14 mph57%30.01 "HgN/A
2:00 PM72 °FMore clouds than sun.15 mph61%30.04 "HgN/A
1:30 PM72 °FPartly sunny.15 mph65%30.04 "HgN/A
1:00 PM73 °FPartly sunny.15 mph57%30.04 "HgN/A
12:30 PM72 °FPartly sunny.17 mph65%30.04 "HgN/A
12:00 PM72 °FPartly sunny.14 mph65%30.04 "HgN/A
11:30 AM70 °FOvercast.13 mph69%30.04 "HgN/A
11:00 AM70 °FOvercast.14 mph64%30.01 "HgN/A
10:30 AM70 °FPartly sunny.12 mph69%30.01 "HgN/A
10:00 AM70 °FOvercast.13 mph69%30.01 "HgN/A
9:30 AM70 °FScattered clouds.10 mph69%30.01 "HgN/A
9:00 AM68 °FPartly sunny.9 mph73%30.01 "HgN/A
8:30 AM68 °FScattered clouds.9 mph73%30.01 "HgN/A
8:00 AM68 °FScattered clouds.8 mph73%30.01 "HgN/A
7:30 AM66 °FPassing clouds.6 mph78%30.01 "HgN/A
7:00 AM66 °FPassing clouds.5 mph78%30.01 "HgN/A
6:30 AM66 °FPassing clouds.7 mph78%29.98 "HgN/A
6:00 AM66 °FPassing clouds.7 mph78%29.98 "HgN/A
1:00 AM66 °FPassing clouds.14 mph78%30.01 "HgN/A
12:30 AM66 °FPassing clouds.16 mph78%30.04 "HgN/A
12:00 AM66 °FPassing clouds.15 mph78%30.04 "HgN/A
Weather by CustomWeather, © 2015

See weather overviewHow to use our weather pages